Content
SEND FEEDBACK

Daily
Averages
Monthly
Summary
United States of America

EVADALE, TEXAS


Home > North America > United States > Texas
Elevation: 4 feet     Latitude: 30 20N     Longitude: 094 05W

WEATHER
 
SELECT A DAY
Number of Records: 68,589;   Date Range: 3/9/11 - 7/21/14
 
SHARE

PRINT THIS DATA

[ ← Previous Day ]
WEATHER ALMANAC - SEPTEMBER 25, 2013
[ Next Day → ]
[ °C ]   °F
Weather ElementAverageHighLow
Temperature77.9 °F92.3 °F (2:55 pm)64.8 °F (7:15 am)
Dewpoint55.8 °F64.9 °F (9:15 am)42.3 °F (5:35 pm)
Humidity51.9 %77 % (6:15 am)18 % (4:35 pm)
Barometer29.83 in29.88 in (9:55 am)29.78 in (4:55 pm)
Wind Speed2.6 mph8.1 mph (11:15 am)
Weather ElementAverage
Visibility7 mi
Wind DirectionSSE (148.2 °)

Weather ElementTotal
Precipitation---
Cooling Degree Days13.6 (Base 65)
Growing Degree Days28.6 (Base 50)
Averaged from 67 records on September 25, 2013
WEATHER CONDITIONS BREAKOUT
WIND DIRECTION BREAKOUT
WEATHER BY HOUR - SEPTEMBER 25, 2013
[ °C ]   °F
Local TimeTemperatureDewpointHumidityBarometerVisibilityWind DirectionWind SpeedGust SpeedPrecipitationEventsConditions
12:35 AM72.0 °F62.8 °F73 %29.84 in4.0 miCalmHaze
12:55 AM70.2 °F61.2 °F73 %29.84 in1.5 miNW (320°)3.5 mphHaze
1:15 AM70.2 °F60.8 °F72 %29.84 in5.0 miCalmHaze
1:35 AM70.5 °F61.0 °F72 %29.84 in0.5 miCalmHaze
1:55 AM70.2 °F60.8 °F72 %29.84 in0.5 miCalmHaze
2:35 AM69.4 °F59.9 °F72 %29.84 in0.8 miCalmHaze
2:55 AM69.3 °F59.9 °F72 %29.83 in0.2 miCalmHaze
3:15 AM68.9 °F59.7 °F72 %29.83 in0.5 miCalmHaze
3:35 AM69.3 °F59.9 °F72 %29.83 in0.8 miCalmHaze
3:55 AM68.5 °F59.2 °F72 %29.82 in7.0 miCalmScattered Clouds
4:35 AM67.5 °F58.5 °F73 %29.82 in1.0 miCalmHaze
4:55 AM67.5 °F58.1 °F72 %29.82 in2.0 miCalmHaze
5:15 AM67.6 °F58.3 °F72 %29.82 in1.2 miCalmHaze
5:35 AM66.4 °F57.6 °F73 %29.83 in2.0 miCalmHaze
5:55 AM66.7 °F57.6 °F72 %29.83 in0.8 miCalmHaze
6:15 AM66.4 °F58.8 °F77 %29.83 in2.5 miCalmHaze
6:35 AM67.1 °F58.3 °F73 %29.84 in0.5 miCalmHaze
6:55 AM66.6 °F57.6 °F73 %29.84 in0.5 miCalmHaze
7:15 AM64.8 °F56.1 °F74 %29.84 in1.0 miCalmHaze
7:35 AM65.3 °F56.5 °F73 %29.85 in0.2 miCalmHaze
7:55 AM67.8 °F58.1 °F71 %29.86 in0.2 miNorth (350°)6.9 mphHaze
8:15 AM70.0 °F60.4 °F72 %29.86 in5.0 miNNW (340°)5.8 mphHaze
8:35 AM71.1 °F61.5 °F72 %29.86 in7.0 miNNW (330°)4.6 mphClear
8:55 AM72.5 °F62.8 °F71 %29.87 in10.0 miNNW (340°)4.6 mphClear
9:15 AM74.1 °F64.9 °F73 %29.87 in10.0 miNNW (340°)4.6 mphClear
9:35 AM76.6 °F64.4 °F66 %29.87 in10.0 miNorth (360°)5.8 mphClear
9:55 AM80.1 °F62.1 °F54 %29.88 in10.0 miNNW (340°)5.8 mphClear
10:15 AM82.2 °F61.2 °F49 %29.88 in10.0 miNorth (350°)6.9 mphClear
10:35 AM83.7 °F58.8 °F43 %29.88 in10.0 miNNW (340°)5.8 mphClear
10:55 AM85.1 °F59.7 °F42 %29.88 in10.0 miNW (310°)6.9 mphClear
11:15 AM85.8 °F59.4 °F41 %29.88 in10.0 miNW (320°)8.1 mphClear
11:35 AM86.5 °F58.8 °F39 %29.87 in10.0 miNW (310°)5.8 mphClear
11:55 AM88.0 °F57.6 °F36 %29.87 in10.0 miWNW (300°)8.1 mphClear
12:15 PM89.1 °F55.9 °F32 %29.87 in10.0 miNW (310°)5.8 mphClear
12:35 PM89.2 °F55.2 °F31 %29.86 in10.0 miWest (280°)3.5 mphClear
1:15 PM90.5 °F52.9 °F28 %29.85 in10.0 miNNW (330°)8.1 mphClear
1:35 PM90.9 °F52.3 °F27 %29.84 in10.0 miNW (310°)6.9 mphClear
1:55 PM90.9 °F50.0 °F25 %29.83 in10.0 miNNW (340°)3.5 mphClear
2:15 PM91.6 °F49.5 °F24 %29.83 in10.0 miWNW (300°)4.6 mphClear
2:35 PM91.4 °F47.1 °F22 %29.82 in10.0 miCalmClear
2:55 PM92.3 °F48.2 °F22 %29.81 in10.0 miNW (310°)6.9 mphClear
3:15 PM91.6 °F46.6 °F21 %29.80 in10.0 miNNW (330°)3.5 mphClear
3:55 PM92.3 °F46.6 °F21 %29.80 in10.0 miWNW (300°)3.5 mphClear
4:15 PM92.3 °F44.8 °F19 %29.79 in10.0 miWest (280°)3.5 mphClear
4:35 PM92.3 °F43.5 °F18 %29.79 in10.0 miNNW (340°)5.8 mphClear
4:55 PM91.9 °F43.9 °F19 %29.78 in10.0 miNW (310°)4.6 mphClear
5:15 PM91.6 °F42.8 °F18 %29.79 in10.0 miNorth (360°)3.5 mphClear
5:35 PM91.0 °F42.3 °F18 %29.79 in10.0 miNNW (340°)4.6 mphClear
5:55 PM90.5 °F43.9 °F20 %29.79 in10.0 miCalmClear
6:15 PM89.8 °F42.4 °F19 %29.79 in10.0 miCalmClear
6:35 PM88.2 °F44.1 °F21 %29.79 in10.0 miCalmClear
6:55 PM80.8 °F51.6 °F36 %29.79 in10.0 miCalmClear
7:15 PM78.3 °F52.2 °F40 %29.79 in10.0 miCalmClear
7:35 PM76.8 °F53.2 °F44 %29.79 in10.0 miCalmClear
7:55 PM74.3 °F54.3 °F50 %29.80 in10.0 miCalmClear
8:15 PM73.8 °F52.5 °F47 %29.80 in10.0 miCalmClear
8:35 PM73.6 °F52.9 °F48 %29.81 in10.0 miSE (140°)4.6 mphClear
8:55 PM72.3 °F54.1 °F53 %29.82 in10.0 miCalmClear
9:15 PM73.8 °F57.6 °F57 %29.82 in10.0 miCalmClear
9:35 PM72.5 °F59.7 °F64 %29.82 in10.0 miSSE (160°)3.5 mphClear
9:55 PM74.5 °F62.4 °F66 %29.83 in10.0 miSouth (170°)4.6 mphClear
10:15 PM74.5 °F61.9 °F65 %29.83 in7.0 miSouth (180°)4.6 mphClear
10:35 PM74.5 °F61.2 °F63 %29.83 in7.0 miCalmClear
10:55 PM73.9 °F61.3 °F65 %29.84 in7.0 miCalmClear
11:15 PM74.3 °F61.3 °F64 %29.83 in7.0 miCalmClear
11:35 PM73.4 °F60.3 °F63 %29.83 in7.0 miSouth (190°)3.5 mphClear
11:55 PM73.4 °F60.4 °F64 %29.83 in7.0 miCalmClear
Hourly data recorded from KBMT, located miles away from Evadale, Texas







STORIES FROM OUR PARTNERS